Flag for U.S.A. Weather past 2 weeks in State College, Pennsylvania, U.S.A.

Now
64 °F

Light rain. Mostly cloudy.


Feels Like: 64 °F
Forecast: 61 / 67 °F
Wind: No wind

Location: University Park Airport

Current Time: Jul 4, 2015 at 4:48:41 AM

Latest Report: Jul 4, 2015 at 4:15 AM


Visibility: 5 mi

Pressure: 29.92 "Hg

Humidity: 97%

Dew point: 63 °F

Location of State CollegeLocation

Historic Weather in State College — Graph

°F

State College temperature yesterday

Maximum temperature yesterday: 75 °F (at 2:53 PM)
Minimum temperature yesterday: 57 °F (at 5:53 AM)
Average temperature yesterday: 65 °F

Past Weeks' High & Low Weather Summary

 TemperatureHumidityPressure
High84 °F (Jun 22, 3:53 PM)100% (Jun 22, 6:53 AM)30.14 "Hg (Jun 22, 6:53 AM)
Low52 °F (Jun 25, 5:53 AM)43% (Jun 22, 3:53 PM)29.69 "Hg (Jun 28, 4:35 AM)
Average66 °F83%29.95 "Hg
* Reported Jun 19 3:15 AM — Jul 4 3:55 AM, State College, Weather by CustomWeather, © 2015

Note: Actual official high and low records may vary slightly from our data, if they occured in-between our weather recording intervals... More about our weather records

Advertising

State College weather history for previous 24 hours

 ConditionsComfort  
Time TempWeatherWind HumidityBarometerVisibility
3:55 AM
Sat, Jul 4
64 °FLight rain. Mostly cloudy.No wind98%29.92 "Hg3 mi
3:15 AM64 °FRain. Mostly cloudy.No wind99%29.92 "Hg2 mi
2:55 AM64 °FRain. Overcast.No wind98%29.93 "Hg2 mi
2:15 AM64 °FRain. Overcast.No wind98%29.94 "Hg2 mi
1:55 AM64 °FRain. Overcast.No wind98%29.94 "Hg2 mi
1:15 AM65 °FLight rain. Mostly cloudy.No wind97%29.95 "Hg2 mi
12:55 AM65 °FLight rain. Mostly cloudy.No wind97%29.95 "Hg3 mi
12:35 AM65 °FRain. Overcast.No wind95%29.95 "Hg3 mi
12:15 AM66 °FRain. Overcast.No wind92%29.96 "Hg4 mi
11:55 PM
Fri, Jul 3
67 °FDrizzle. Mostly cloudy.No wind92%29.95 "Hg7 mi
11:35 PM67 °FLight rain. Overcast.No wind87%29.95 "Hg5 mi
11:15 PM68 °FRain. Overcast.No wind83%29.95 "Hg10 mi
10:55 PM69 °FLight rain. Overcast.No wind80%29.95 "Hg10 mi
10:15 PM68 °FOvercast.5 mph82%29.95 "Hg10 mi
8:53 PM70 °FSunny.No wind73%29.95 "Hg10 mi
7:53 PM72 °FSunny.3 mph69%29.95 "Hg10 mi
6:53 PM73 °FScattered clouds.7 mph65%29.95 "Hg10 mi
5:53 PM73 °FScattered clouds.6 mph65%29.96 "Hg8 mi
4:53 PM75 °FScattered clouds.6 mph61%29.96 "Hg8 mi
3:53 PM75 °FScattered clouds.7 mph61%29.98 "Hg8 mi
2:53 PM75 °FBroken clouds.No wind57%29.99 "Hg10 mi
1:53 PM73 °FPartly sunny.No wind65%30.00 "Hg10 mi
12:53 PM72 °FPartly sunny.No wind61%30.01 "Hg10 mi
11:53 AM70 °FPartly sunny.No wind69%30.03 "Hg10 mi
10:53 AM68 °FPassing clouds.6 mph69%30.02 "Hg10 mi
9:53 AM64 °FScattered clouds.6 mph73%30.03 "Hg10 mi
8:53 AM63 °FOvercast.5 mph77%30.04 "Hg10 mi
7:53 AM59 °FSunny.6 mph88%30.01 "Hg10 mi
6:53 AM57 °FSunny.6 mph94%30.00 "Hg10 mi
5:53 AM57 °FPassing clouds.9 mph94%29.99 "Hg10 mi
5:15 AM58 °FPassing clouds.6 mph92%30.00 "Hg10 mi
4:55 AM58 °FPassing clouds.5 mph92%29.99 "Hg10 mi
4:35 AM58 °FPassing clouds.5 mph93%29.99 "Hg10 mi
4:15 AM59 °FClear.5 mph92%29.98 "Hg10 mi
Weather by CustomWeather, © 2015

See weather overviewHow to use our weather pages